カタログに戻る

FENGYUN 1C DEB

運用中PO
NORAD 29880·DEBRIS·🇨🇳 China

打ち上げ May 10, 1999 から Taiyuan Satellite Launch Center

Loading…

次のパス (今後24時間)

TLE

最新Source: Space-Track

元期: Sep 14, 2026, 04:54 UTC

1 29880U 99025GA  26257.20448947  .00001012  00000-0  62456-3 0  9992
2 29880  98.1801 150.0613 0231567  49.2501  99.9053 13.94801364994014

AllMySatでFENGYUN 1C DEBをリアルタイム追跡

Download on the App Store